User: anonymous   Login
Location: Aalen
(48.8330°N, 10.1000°E)
Time: 03:15:02
(UTC+02:00)
Language:

Envisat - Orbit

View from above orbital plane
View from above orbital plane
View from above satellite
View from above satellite

Ground track
Ground track

The orbit data is extracted from the following two-line orbital elements,

1 27386U 02009A   19168.70471231 -.00000006  00000-0  11391-4 0  9993
2 27386  98.1489 189.7820 0001276  93.8234  19.8416 14.37950811906055
Epoch (UTC): 17 June 2019 16:54:47
Eccentricity: 0.0001276
inclination: 98.1489°
perigee height: 764 km
apogee height: 766 km
right ascension of ascending node: 189.7820°
argument of perigee: 93.8234°
revolutions per day: 14.37950811
mean anomaly at epoch: 19.8416°
orbit number at epoch: 90605

The dashed part of the orbit path shows where the satellite is in the earth's shadow,  

DLR